RH
13 13 13 13 13 12 10 7 6 6 5 5 4 5 5 6 8 30 53 58 89 58 44 38 30 35 41 60 83 67 94 84 73 63 45 36 34 27 20 27 50 55 56 65 92
14 14 14 14 13 10 8 7 6 5 5 5 6 6 8 7 41 63 81 81 75 60 39 40 51 45 50 57 70 79 76 74 58 52 47 42 36 31 23 57 65 76 67 88 95
14 16 16 14 11 9 8 6 6 6 5 6 7 11 8 11 58 73 55 44 61 52 49 46 50 57 74 67 51 77 88 58 50 47 49 45 41 43 42 35 51 74 96 100 100
15 16 16 14 10 8 7 6 6 6 6 8 12 15 10 18 24 58 55 63 59 51 48 51 55 50 66 79 66 69 57 61 64 55 56 62 58 58 38 28 29 50 89 100 100
15 16 16 13 10 8 7 6 6 6 7 12 19 15 23 39 56 52 51 49 45 45 43 47 58 58 66 58 60 73 62 54 54 57 61 62 66 59 48 35 31 84 98 100 99
15 17 16 13 10 8 7 6 5 6 12 16 17 30 41 48 53 53 50 41 43 48 51 53 53 55 59 64 67 57 67 66 59 54 58 62 57 46 37 37 72 98 95 100 99
14 18 16 13 10 8 7 6 5 12 14 18 21 45 49 49 38 35 39 40 41 47 50 53 57 61 62 72 62 65 82 65 58 61 65 61 71 63 48 49 98 93 99 100 99
13 18 16 13 10 8 7 6 6 19 19 24 40 49 52 36 34 36 38 40 40 43 51 55 60 62 66 70 77 81 76 82 52 53 61 67 70 51 42 75 87 88 100 100 100
14 18 16 13 10 8 7 5 9 18 25 32 33 35 30 35 39 43 49 49 48 49 54 55 66 66 75 89 98 99 96 84 68 57 58 65 76 61 40 55 86 86 98 100 100
13 18 16 13 10 10 7 6 12 31 30 29 33 29 31 41 41 50 52 54 59 63 61 66 68 85 96 93 92 92 94 88 83 66 71 72 80 74 42 67 78 81 90 100 100
11 18 15 13 11 11 8 9 17 15 37 42 46 44 39 42 42 48 51 57 60 69 83 80 96 89 89 80 81 83 91 96 75 70 87 76 80 61 50 78 98 88 93 100 100
12 17 16 13 12 11 18 54 70 56 56 34 42 46 40 46 48 51 52 66 83 94 84 75 89 84 77 69 91 93 92 92 76 80 97 87 74 58 51 80 79 91 87 86 100
16 17 16 13 13 12 29 64 71 71 72 33 40 48 42 45 48 52 54 76 89 80 79 90 77 73 98 83 97 85 95 91 85 98 98 85 78 80 64 84 94 70 79 90 86
18 18 16 14 15 15 32 64 79 82 74 33 38 40 42 40 48 45 52 81 80 88 88 86 82 87 85 97 93 97 75 77 89 94 97 86 96 88 70 99 92 100 98 100 97
24 18 16 17 16 20 35 59 84 86 37 31 44 39 47 46 47 50 54 68 92 84 83 72 78 84 97 99 77 83 68 75 87 96 98 94 92 68 87 100 91 85 94 100 97
30 18 16 19 19 23 37 60 85 62 36 56 50 58 65 54 50 56 58 61 76 84 78 87 68 82 100 95 93 80 81 98 98 97 95 94 80 83 96 99 85 98 100 100 99
29 19 19 23 19 22 34 56 67 55 50 53 69 65 73 69 66 72 82 90 94 94 90 76 72 62 93 93 73 88 94 97 94 95 91 96 84 97 91 89 96 100 100 100 100
25 19 25 23 19 18 32 57 42 62 83 61 69 71 75 72 65 80 81 85 86 91 95 99 87 76 73 100 100 96 96 96 94 98 96 97 96 99 90 93 100 100 100 100 100
21 20 32 21 20 14 26 80 76 82 66 77 75 82 80 75 78 80 91 77 84 94 98 98 82 67 76 78 93 78 88 62 96 96 93 96 85 82 84 96 99 100 100 100 100
20 21 36 20 18 13 70 73 67 58 66 79 96 84 98 88 86 92 97 75 85 74 87 93 96 73 85 67 68 74 68 77 88 95 95 95 95 93 85 94 97 100 100 100 100
21 27 36 19 18 16 79 70 62 52 60 89 91 92 92 100 96 100 89 75 82 85 82 95 97 73 74 90 95 88 93 87 77 90 93 94 96 87 92 94 98 99 100 99 99
21 44 32 20 33 73 82 77 56 55 60 70 87 96 93 90 99 99 95 80 69 84 94 88 98 97 81 64 75 97 92 91 89 80 95 91 94 92 94 99 99 100 100 99 98
24 39 45 20 70 88 62 54 61 61 62 65 72 77 74 89 95 90 82 64 61 86 92 92 94 95 74 66 64 97 86 80 90 90 99 90 87 90 90 95 99 100 100 100 100
30 79 41 29 55 66 80 64 75 59 64 66 73 70 82 87 78 90 78 66 62 82 70 82 96 95 96 96 96 96 95 83 84 94 92 92 89 90 94 94 99 100 100 100 99
40 65 55 79 78 77 75 84 82 76 63 70 72 76 96 97 100 94 83 71 69 82 76 90 99 98 89 88 81 94 96 94 94 87 87 86 99 85 88 99 99 98 95 83 80
65 58 71 69 68 84 93 92 77 78 76 73 84 72 91 100 87 96 92 86 91 85 95 91 97 97 94 74 84 92 89 90 95 90 85 88 90 73 92 91 87 84 79 73 77
88 63 50 80 90 89 89 82 75 70 65 66 74 94 98 87 81 81 83 92 96 98 98 96 97 93 98 83 85 86 98 98 94 93 94 90 77 79 83 78 78 68 58 64 65
Wind_Speed
18 18 19 21 22 22 23 23 24 24 25 27 26 25 24 20 22 11 12 9 10 12 15 14 9 12 10 9 15 15 5 11 6 6 5 3 1 3 3 6 10 12 8 15 35
19 20 20 20 21 23 23 24 24 25 26 27 24 23 19 20 8 16 13 10 9 14 17 17 14 12 5 3 8 11 11 8 4 4 5 6 3 8 3 4 5 6 10 31 40
21 21 21 22 22 22 23 23 25 27 27 25 24 18 19 14 7 8 11 12 12 15 14 12 11 9 3 5 8 9 25 1 3 3 7 7 6 10 12 4 9 16 23 41 42
22 22 23 23 24 24 23 24 27 27 26 26 21 16 19 7 3 6 9 10 12 13 15 15 11 8 2 4 5 14 23 18 20 21 14 3 11 15 5 6 19 17 32 43 42
23 22 23 24 24 24 23 26 27 27 28 20 13 20 11 10 7 6 8 10 15 18 17 16 12 6 3 4 8 10 13 24 30 25 18 23 13 8 20 29 21 20 34 35 39
24 24 25 26 26 26 25 26 27 27 18 11 19 12 11 8 6 7 8 15 17 17 15 12 10 14 12 9 8 10 15 19 21 23 17 19 19 5 9 13 12 23 31 32 34
25 26 26 27 28 27 27 28 28 16 16 18 13 10 17 10 16 13 15 15 18 17 17 17 12 13 5 5 16 17 8 9 14 12 9 15 18 18 17 13 16 21 27 27 31
25 26 27 28 29 28 28 29 24 8 18 13 10 9 6 12 18 19 20 21 19 18 18 16 17 15 14 11 8 5 3 7 10 10 11 12 18 24 15 16 17 19 24 26 32
26 27 28 28 28 27 29 28 15 11 6 18 11 7 5 17 27 18 20 22 23 20 20 20 12 12 6 4 7 5 4 5 9 10 8 15 10 11 17 21 22 20 22 25 30
26 26 27 27 27 26 30 24 5 12 4 5 19 2 15 21 24 19 27 26 24 21 13 1 2 1 0 4 8 4 4 5 9 4 12 11 13 8 22 23 22 27 22 24 29
27 27 26 26 25 27 31 25 14 3 15 8 4 2 15 24 13 20 33 28 10 6 3 3 1 8 10 11 13 10 12 12 10 10 10 14 11 13 9 19 17 22 25 23 26
27 27 25 24 21 26 26 21 12 5 4 13 7 7 18 22 8 22 34 15 7 5 8 3 7 8 9 10 11 12 12 10 12 6 5 7 14 9 3 5 22 21 27 27 24
27 27 25 22 16 25 24 24 14 4 1 5 7 6 15 14 6 20 30 17 2 6 10 5 7 11 8 10 8 9 8 5 7 5 9 4 3 2 1 3 14 24 29 29 32
26 26 23 21 11 22 20 22 11 4 4 8 9 8 20 17 3 18 24 8 5 6 6 6 5 8 13 8 8 4 8 10 4 3 3 3 2 2 4 1 7 16 22 20 22
25 24 19 18 16 20 20 17 6 1 3 13 8 10 21 9 12 17 17 6 3 6 4 5 6 14 14 2 7 7 2 7 1 3 2 3 4 1 7 3 7 10 14 21 22
23 21 15 17 17 19 20 14 2 5 4 7 7 9 11 9 10 18 13 21 3 4 4 8 11 3 4 5 3 3 1 2 1 1 3 3 4 3 3 4 4 6 12 19 24
21 19 12 15 20 19 19 7 5 6 4 8 5 8 8 6 6 8 7 8 11 9 8 8 4 4 5 5 4 5 3 3 3 4 1 4 4 1 6 6 4 5 11 15 23
19 16 9 14 16 16 15 5 8 2 4 4 5 10 4 9 5 7 7 8 3 6 4 5 8 8 5 3 3 3 1 3 2 2 1 3 2 3 5 5 10 17 16 15 17
19 14 6 13 14 13 5 6 5 5 4 6 9 5 5 4 2 7 4 8 3 6 5 4 5 5 3 3 1 4 3 1 2 1 2 1 2 1 3 7 10 12 15 15 16
20 15 3 12 11 8 5 4 3 2 2 2 2 4 4 6 7 6 4 3 7 7 2 3 6 2 7 4 2 0 5 3 3 2 2 2 2 2 5 5 4 4 9 11 12
16 8 5 11 7 6 4 3 2 2 1 3 1 4 3 3 1 3 3 5 5 8 7 3 2 8 4 5 5 6 4 4 2 2 3 2 1 2 4 4 2 3 5 6 8
8 3 7 7 4 3 2 4 1 1 1 0 1 3 2 3 3 3 3 5 13 8 7 2 3 4 4 5 2 2 4 2 3 5 2 3 1 2 2 5 3 5 4 6 7
7 5 4 5 3 2 1 1 1 0 1 1 1 1 1 2 3 4 3 4 17 6 11 5 2 4 8 5 5 5 6 3 2 1 2 3 2 3 4 6 5 5 4 5 7
5 2 3 5 5 5 4 2 1 2 3 1 2 1 3 3 2 4 4 4 24 6 13 2 1 3 3 4 3 5 8 7 1 3 1 1 2 6 5 3 3 4 5 5 6
3 2 2 2 1 3 2 3 2 1 2 1 1 2 3 3 4 3 2 7 6 6 7 4 2 3 6 8 3 2 4 8 5 1 3 2 2 4 4 2 3 6 6 5 7
5 4 3 3 6 5 3 4 5 2 3 2 3 2 3 4 6 4 4 1 3 7 3 4 2 4 3 5 6 0 6 4 4 4 5 4 3 2 3 4 4 6 8 7 6
11 9 3 5 4 4 4 5 5 4 3 6 5 1 3 7 10 15 18 13 10 3 3 3 3 5 4 4 5 4 3 3 2 2 2 1 0 1 2 3 4 7 8 7 7
Wind_Direction
15 12 9 6 1 357 351 347 343 341 340 335 335 338 342 351 347 7 41 60 34 4 351 346 343 270 269 252 221 219 245 248 254 164 248 341 147 198 236 176 173 194 186 182 173
14 11 7 4 0 354 349 345 343 340 337 334 333 341 348 350 59 70 53 33 9 350 348 349 346 337 296 243 229 212 227 241 209 205 299 332 17 329 271 186 203 203 186 168 175
12 8 4 0 357 354 351 346 341 337 334 333 333 346 352 357 112 47 28 8 1 350 0 354 334 339 279 258 229 244 240 179 234 331 16 328 324 345 350 249 217 194 164 168 176
9 6 1 357 356 354 353 346 339 335 332 331 334 353 353 10 98 53 20 357 350 346 343 344 343 332 297 267 288 268 270 278 266 276 287 282 307 321 316 291 316 226 176 170 175
8 4 358 354 355 354 353 346 340 336 330 333 353 354 14 85 100 32 359 342 335 328 324 318 312 302 243 268 298 268 287 279 279 286 287 292 269 262 284 298 296 181 171 175 176
4 1 357 354 353 355 352 349 342 337 345 1 353 17 68 77 54 334 334 329 335 331 331 324 288 285 262 240 232 275 306 293 287 281 275 265 285 224 250 297 194 169 177 178 179
2 359 355 353 352 353 353 351 347 348 1 339 4 79 75 70 5 358 345 335 327 322 310 308 305 259 265 302 276 269 282 288 270 249 241 242 260 243 252 251 184 179 178 177 182
1 356 355 351 352 352 353 351 349 353 5 35 32 81 83 14 356 347 340 329 327 313 304 302 283 272 244 251 304 271 254 256 250 217 219 202 251 263 228 191 189 193 179 178 176
360 356 355 352 351 350 351 353 350 7 57 47 33 93 36 357 353 4 356 340 325 317 309 303 267 241 224 246 266 220 247 239 288 217 227 194 238 252 237 208 179 192 184 172 183
357 357 354 351 351 348 353 359 38 53 10 14 24 33 360 337 350 4 352 334 318 307 315 344 219 238 69 218 256 222 258 261 250 248 228 210 215 276 215 196 183 185 181 176 177
354 354 353 351 351 349 354 16 35 56 55 56 343 173 325 343 1 358 351 343 351 327 350 290 299 252 240 229 246 270 253 261 273 275 302 212 194 196 245 191 172 173 165 177 176
351 351 353 350 349 352 357 35 32 325 311 26 0 332 352 346 321 4 358 356 347 344 338 296 268 289 296 256 246 269 274 266 270 295 236 228 200 203 166 228 177 175 167 182 178
349 347 349 351 347 354 6 13 15 24 315 357 14 335 344 346 325 358 356 337 341 334 326 287 277 319 286 264 249 249 258 248 271 345 254 146 54 204 68 16 180 185 180 180 186
346 344 347 357 353 354 2 357 3 49 72 342 349 4 354 355 355 359 355 347 342 315 319 274 285 277 293 265 201 267 228 242 278 318 127 22 144 186 208 11 188 136 163 166 180
342 343 345 359 351 355 345 345 352 55 17 328 324 326 349 28 308 338 357 349 300 301 302 271 309 326 307 293 159 238 230 196 233 337 22 15 107 205 133 186 170 162 152 161 179
341 341 343 346 353 348 342 342 355 41 287 332 337 341 358 360 351 346 358 16 286 322 291 261 286 318 299 314 316 306 98 102 109 140 32 305 98 4 37 338 160 115 135 153 170
339 339 341 343 346 344 339 336 27 84 2 337 338 341 337 319 325 10 348 8 31 350 1 323 312 307 353 329 7 48 15 5 19 31 186 334 63 168 332 339 307 130 107 142 152
340 338 336 343 344 343 339 44 66 285 307 317 312 315 336 1 345 338 3 12 351 16 316 350 334 2 354 349 318 315 13 128 148 128 172 63 56 2 357 13 76 122 121 138 143
337 338 329 342 344 347 345 50 189 216 269 321 326 347 329 1 354 3 36 7 342 357 356 332 285 326 259 292 259 331 40 313 86 58 76 50 41 143 84 58 54 85 124 132 138
333 331 331 349 346 353 71 147 196 175 322 46 336 15 323 329 1 29 1 302 344 342 299 317 294 294 299 344 325 327 320 32 349 75 52 91 65 4 353 38 86 91 106 139 149
330 327 331 343 339 41 108 190 217 233 314 166 228 302 290 294 153 301 309 293 6 315 351 325 290 303 0 8 341 348 8 0 127 111 143 134 21 257 275 303 251 127 147 163 178
317 329 326 342 25 42 120 187 250 255 24 43 222 239 280 311 302 281 256 213 358 337 352 301 310 283 272 316 319 308 338 41 84 311 70 127 260 341 357 309 222 142 151 168 183
306 288 334 356 102 332 293 164 200 292 202 214 261 187 273 270 326 225 297 308 354 357 345 340 328 339 348 358 8 27 337 328 207 124 12 103 259 109 59 77 76 130 140 158 160
308 358 10 65 97 137 142 201 245 250 210 198 231 51 7 310 210 293 306 323 330 348 359 347 263 162 220 268 318 321 332 341 59 58 227 250 342 358 28 57 90 143 153 170 170
243 248 211 273 306 104 107 188 165 232 224 232 189 150 154 290 304 265 272 324 310 350 14 70 331 349 277 273 285 318 334 343 54 319 121 207 103 338 6 169 182 171 164 163 162
182 195 177 144 139 110 317 238 194 247 163 229 164 212 165 221 200 277 331 355 276 332 41 5 317 344 292 349 353 350 360 351 14 11 61 75 29 350 43 113 148 188 204 193 175
205 218 193 163 139 108 216 205 217 159 236 234 208 118 267 252 267 272 284 269 256 289 319 64 7 352 278 3 344 357 325 340 329 357 350 136 237 152 63 117 177 212 211 201 203